パンスターズ彗星

C/2020 K2 ( PanSTARRS )

English version
Home page
Updated on June 26, 2020

---------------------------------------------------------------------

・ プロフィール

発見日 2020年5月21日
発見光度 20.5等
発見者 Pan-STARRS 1 telescope (Haleakala)

・ 写真集

・ 軌道要素

Epoch 2020 Aug. 19.0 TT = JDT 2459080.5
T 2020 Aug. 1.52179 TT                                  Rudenko
q   8.8731263            (2000.0)            P               Q
z  +0.0006407      Peri.   67.09732     +0.10665121     -0.29537604
 +/-0.0007012      Node   288.27607     -0.71006852     +0.64577400
e   0.9943151      Incl.   91.00815     +0.69600877     +0.70408021
From 52 observations 2020 May 21-June 9, mean residual 0".4.

・ 光度変化

        m1 = 6.0 + 5 logΔ + 10.0 log r

---------------------------------------------------------------------

軌道要素はM.P.E.C. 2020-M07に掲載されたものです。
光度グラフはComet for Windowsで作成したものです。

---------------------------------------------------------------------

Copyright(C) Seiichi Yoshida (comet@aerith.net). All rights reserved.